Tracking 29528 objects as of 14-Sep-2024
HD Live streaming from Space Station
objects crossing your sky now

STARLINK-30450

Track STARLINK-30450 now!
10-day predictions
STARLINK-30450 is classified as:


NORAD ID: 57913
Int'l Code: 2023-147A
Perigee: 565.0 km
Apogee: 567.2 km
Inclination: 43.0 °
Period: 95.8 minutes
Semi major axis: 6937 km
RCS: Unknown
Launch date: September 24, 2023
Source: United States (US)
Launch site: AIR FORCE EASTERN TEST RANGE (AFETR)
Your satellite tracking list
Your tracking list is empty




NASA's NSSDC Master Catalog

Two Line Element Set (TLE):
1 57913U 23147A   24257.43227308  .00008657  00000-0  65454-3 0  9994
2 57913  43.0044  32.9389 0001602 268.7061  91.3598 15.02569951 54934
Source of the keplerian elements: AFSPC